Time,TemperatureF,DewpointF,PressureIn,WindDirection,WindDirectionDegrees,WindSpeedMPH,WindSpeedGustMPH,Humidity,HourlyPrecipIn,Conditions,Clouds,dailyrainin,SoftwareType,DateUTC
2013-04-24 00:00:00,52.4,49.3,30.16,SSW,206,0.0,0.0,89,0.00,,,0.00,Wunderground v.1.15,2013-04-24 04:00:00,
2013-04-24 00:05:00,52.4,49.3,30.16,SSW,206,0.0,0.0,89,0.00,,,0.00,Wunderground v.1.15,2013-04-24 04:05:00,
2013-04-24 00:10:00,52.4,49.3,30.16,SSW,206,0.0,0.0,89,0.00,,,0.00,Wunderground v.1.15,2013-04-24 04:10:00,
2013-04-24 00:15:00,52.3,48.9,30.16,SSW,206,0.0,0.0,88,0.00,,,0.00,Wunderground v.1.15,2013-04-24 04:15:00,
2013-04-24 00:20:00,52.3,49.2,30.16,SSW,206,0.0,0.0,89,0.00,,,0.00,Wunderground v.1.15,2013-04-24 04:20:00,
2013-04-24 00:25:00,52.2,49.1,30.16,SSW,206,0.0,0.0,89,0.00,,,0.00,Wunderground v.1.15,2013-04-24 04:25:00,
2013-04-24 00:30:00,52.0,48.6,30.16,SSW,206,0.0,0.0,88,0.00,,,0.00,Wunderground v.1.15,2013-04-24 04:30:00,
2013-04-24 00:35:00,51.7,48.3,30.16,SSW,206,0.0,0.0,88,0.00,,,0.00,Wunderground v.1.15,2013-04-24 04:35:00,
2013-04-24 00:40:00,51.5,48.4,30.17,SSW,206,0.0,0.0,89,0.00,,,0.00,Wunderground v.1.15,2013-04-24 04:40:00,
2013-04-24 00:45:00,51.5,48.7,30.17,SSW,206,0.0,0.0,90,0.00,,,0.00,Wunderground v.1.15,2013-04-24 04:45:00,
2013-04-24 00:55:00,51.2,48.4,30.17,SSW,206,0.0,0.0,90,0.00,,,0.00,Wunderground v.1.15,2013-04-24 04:55:00,
2013-04-24 01:00:00,50.8,48.0,30.17,SSW,206,0.0,0.0,90,0.00,,,0.00,Wunderground v.1.15,2013-04-24 05:00:00,
2013-04-24 01:05:00,50.5,47.7,30.17,SSW,206,0.0,0.0,90,0.00,,,0.00,Wunderground v.1.15,2013-04-24 05:05:00,
2013-04-24 01:15:00,50.3,47.8,30.17,SSW,206,0.0,0.0,91,0.00,,,0.00,Wunderground v.1.15,2013-04-24 05:15:00,
2013-04-24 01:20:00,50.2,48.0,30.17,SSW,206,0.0,0.0,92,0.00,,,0.00,Wunderground v.1.15,2013-04-24 05:20:00,
2013-04-24 01:30:00,49.8,47.6,30.17,SSW,206,0.0,0.0,92,0.00,,,0.00,Wunderground v.1.15,2013-04-24 05:30:00,
2013-04-24 01:35:00,49.7,47.5,30.17,SSW,206,0.0,0.0,92,0.00,,,0.00,Wunderground v.1.15,2013-04-24 05:35:00,
2013-04-24 01:45:00,49.4,47.2,30.17,SSW,206,0.0,0.0,92,0.00,,,0.00,Wunderground v.1.15,2013-04-24 05:45:00,
2013-04-24 01:50:00,49.4,47.2,30.16,SSW,206,0.0,0.0,92,0.00,,,0.00,Wunderground v.1.15,2013-04-24 05:50:00,
2013-04-24 02:00:00,49.7,47.8,30.16,SSW,206,0.0,0.0,93,0.00,,,0.00,Wunderground v.1.15,2013-04-24 06:00:00,
2013-04-24 02:05:00,49.8,47.9,30.16,SSW,206,0.0,0.0,93,0.00,,,0.00,Wunderground v.1.15,2013-04-24 06:05:00,
2013-04-24 02:15:00,49.9,48.0,30.16,SSW,206,0.0,0.0,93,0.00,,,0.00,Wunderground v.1.15,2013-04-24 06:15:00,
2013-04-24 02:20:00,49.7,47.8,30.16,SSW,206,0.0,0.0,93,0.00,,,0.00,Wunderground v.1.15,2013-04-24 06:20:00,
2013-04-24 02:30:00,49.8,48.1,30.15,SSW,206,0.0,0.0,94,0.00,,,0.00,Wunderground v.1.15,2013-04-24 06:30:00,
2013-04-24 02:35:00,50.0,48.3,30.15,SSW,206,0.0,0.0,94,0.00,,,0.00,Wunderground v.1.15,2013-04-24 06:35:00,
2013-04-24 02:40:00,50.1,48.4,30.15,SSW,206,0.0,0.0,94,0.00,,,0.00,Wunderground v.1.15,2013-04-24 06:40:00,
2013-04-24 02:45:00,50.2,48.5,30.15,SSW,206,0.0,0.0,94,0.00,,,0.00,Wunderground v.1.15,2013-04-24 06:45:00,
2013-04-24 02:50:00,50.3,48.6,30.15,SSW,206,0.0,0.0,94,0.00,,,0.00,Wunderground v.1.15,2013-04-24 06:50:00,
2013-04-24 02:55:00,50.3,48.6,30.15,SSW,206,0.0,0.0,94,0.00,,,0.00,Wunderground v.1.15,2013-04-24 06:55:00,
2013-04-24 03:00:00,50.3,48.6,30.15,SSW,206,0.0,1.0,94,0.00,,,0.00,Wunderground v.1.15,2013-04-24 07:00:00,
2013-04-24 03:05:00,50.4,48.7,30.15,SSW,206,0.0,1.0,94,0.00,,,0.00,Wunderground v.1.15,2013-04-24 07:05:00,
2013-04-24 03:15:00,50.5,48.6,30.15,SSW,206,0.0,0.0,93,0.00,,,0.00,Wunderground v.1.15,2013-04-24 07:15:00,
2013-04-24 03:20:00,50.5,48.6,30.15,SSW,206,0.0,0.0,93,0.00,,,0.00,Wunderground v.1.15,2013-04-24 07:20:00,
2013-04-24 03:25:00,50.5,48.6,30.14,SSW,206,0.0,0.0,93,0.00,,,0.00,Wunderground v.1.15,2013-04-24 07:25:00,
2013-04-24 03:35:00,50.5,48.6,30.14,SSW,206,0.0,0.0,93,0.00,,,0.00,Wunderground v.1.15,2013-04-24 07:35:00,
2013-04-24 03:40:00,50.5,48.6,30.15,SSW,206,0.0,0.0,93,0.00,,,0.00,Wunderground v.1.15,2013-04-24 07:40:00,
2013-04-24 03:45:00,50.6,48.7,30.15,SSW,206,0.0,0.0,93,0.00,,,0.00,Wunderground v.1.15,2013-04-24 07:45:00,
2013-04-24 03:50:00,50.6,48.7,30.15,SSW,206,0.0,0.0,93,0.00,,,0.00,Wunderground v.1.15,2013-04-24 07:50:00,
2013-04-24 03:55:00,50.7,49.0,30.15,SSW,206,0.0,0.0,94,0.00,,,0.00,Wunderground v.1.15,2013-04-24 07:55:00,
2013-04-24 04:00:00,50.7,48.7,30.15,SSW,206,0.0,0.0,93,0.00,,,0.00,Wunderground v.1.15,2013-04-24 08:00:00,
2013-04-24 04:05:00,50.7,48.7,30.15,SSW,206,0.0,0.0,93,0.00,,,0.00,Wunderground v.1.15,2013-04-24 08:05:00,
2013-04-24 04:15:00,50.5,48.6,30.14,SSW,206,0.0,0.0,93,0.00,,,0.00,Wunderground v.1.15,2013-04-24 08:15:00,
2013-04-24 04:20:00,50.4,48.5,30.14,SSW,206,0.0,0.0,93,0.00,,,0.00,Wunderground v.1.15,2013-04-24 08:20:00,
2013-04-24 04:25:00,50.5,48.6,30.14,SSW,206,0.0,0.0,93,0.00,,,0.00,Wunderground v.1.15,2013-04-24 08:25:00,
2013-04-24 04:35:00,49.8,47.9,30.15,SSW,206,0.0,0.0,93,0.00,,,0.00,Wunderground v.1.15,2013-04-24 08:35:00,
2013-04-24 04:40:00,49.6,47.7,30.15,SSW,206,0.0,0.0,93,0.00,,,0.00,Wunderground v.1.15,2013-04-24 08:40:00,
2013-04-24 04:45:00,49.5,47.6,30.15,SSW,206,0.0,0.0,93,0.00,,,0.00,Wunderground v.1.15,2013-04-24 08:45:00,
2013-04-24 04:50:00,49.5,47.8,30.15,SSW,206,0.0,0.0,94,0.00,,,0.00,Wunderground v.1.15,2013-04-24 08:50:00,
2013-04-24 04:55:00,49.6,47.9,30.14,SSW,206,0.0,0.0,94,0.00,,,0.00,Wunderground v.1.15,2013-04-24 08:55:00,
2013-04-24 05:00:00,49.6,47.9,30.14,SSW,206,0.0,0.0,94,0.00,,,0.00,Wunderground v.1.15,2013-04-24 09:00:00,
2013-04-24 05:05:00,49.7,48.0,30.15,SSW,206,0.0,0.0,94,0.00,,,0.00,Wunderground v.1.15,2013-04-24 09:05:00,
2013-04-24 05:15:00,49.6,47.9,30.14,SSW,206,0.0,0.0,94,0.00,,,0.00,Wunderground v.1.15,2013-04-24 09:15:00,
2013-04-24 05:20:00,49.5,47.8,30.14,SSW,206,0.0,0.0,94,0.00,,,0.00,Wunderground v.1.15,2013-04-24 09:20:00,
2013-04-24 05:25:00,49.4,47.7,30.14,SSW,206,0.0,0.0,94,0.00,,,0.00,Wunderground v.1.15,2013-04-24 09:25:00,
2013-04-24 05:30:00,49.3,47.6,30.14,SSW,206,0.0,0.0,94,0.00,,,0.00,Wunderground v.1.15,2013-04-24 09:30:00,
2013-04-24 05:40:00,49.1,47.4,30.14,SSW,206,0.0,0.0,94,0.00,,,0.00,Wunderground v.1.15,2013-04-24 09:40:00,
2013-04-24 05:45:00,49.1,47.4,30.15,SSW,206,0.0,0.0,94,0.00,,,0.00,Wunderground v.1.15,2013-04-24 09:45:00,
2013-04-24 05:50:00,49.1,47.4,30.15,SSW,206,0.0,0.0,94,0.00,,,0.00,Wunderground v.1.15,2013-04-24 09:50:00,
2013-04-24 05:55:00,49.0,47.3,30.15,SSW,206,0.0,0.0,94,0.00,,,0.00,Wunderground v.1.15,2013-04-24 09:55:00,
2013-04-24 06:00:00,48.9,47.2,30.15,SSW,206,0.0,0.0,94,0.00,,,0.00,Wunderground v.1.15,2013-04-24 10:00:00,
2013-04-24 06:05:00,48.8,47.4,30.16,SSW,206,0.0,0.0,95,0.00,,,0.00,Wunderground v.1.15,2013-04-24 10:05:00,
2013-04-24 06:15:00,48.9,47.5,30.16,SSW,206,0.0,0.0,95,0.00,,,0.00,Wunderground v.1.15,2013-04-24 10:15:00,
2013-04-24 06:20:00,49.0,47.6,30.16,SSW,206,0.0,0.0,95,0.00,,,0.00,Wunderground v.1.15,2013-04-24 10:20:00,
2013-04-24 06:25:00,49.1,47.7,30.16,SSW,206,0.0,0.0,95,0.00,,,0.00,Wunderground v.1.15,2013-04-24 10:25:00,
2013-04-24 06:30:00,49.0,47.6,30.16,SSW,206,0.0,0.0,95,0.00,,,0.00,Wunderground v.1.15,2013-04-24 10:30:00,
2013-04-24 06:40:00,48.8,47.4,30.16,SSW,206,0.0,0.0,95,0.00,,,0.00,Wunderground v.1.15,2013-04-24 10:40:00,
2013-04-24 06:45:00,48.8,47.4,30.16,SSW,206,0.0,0.0,95,0.00,,,0.00,Wunderground v.1.15,2013-04-24 10:45:00,
2013-04-24 06:50:00,48.9,47.5,30.16,SSW,206,0.0,0.0,95,0.00,,,0.00,Wunderground v.1.15,2013-04-24 10:50:00,
2013-04-24 06:55:00,48.9,47.5,30.16,SSW,206,0.0,0.0,95,0.00,,,0.00,Wunderground v.1.15,2013-04-24 10:55:00,
2013-04-24 07:00:00,49.0,47.6,30.17,SSW,206,0.0,1.0,95,0.00,,,0.00,Wunderground v.1.15,2013-04-24 11:00:00,
2013-04-24 07:05:00,49.1,47.7,30.17,SSW,206,0.0,1.0,95,0.00,,,0.00,Wunderground v.1.15,2013-04-24 11:05:00,
2013-04-24 07:15:00,49.6,48.5,30.17,SSW,206,0.0,1.0,96,0.00,,,0.00,Wunderground v.1.15,2013-04-24 11:15:00,
2013-04-24 07:20:00,49.7,48.6,30.17,SSW,206,1.0,1.0,96,0.00,,,0.00,Wunderground v.1.15,2013-04-24 11:20:00,
2013-04-24 07:25:00,49.9,48.5,30.17,SSW,206,0.0,1.0,95,0.00,,,0.00,Wunderground v.1.15,2013-04-24 11:25:00,
2013-04-24 07:30:00,50.1,48.7,30.17,SSW,206,0.0,1.0,95,0.00,,,0.00,Wunderground v.1.15,2013-04-24 11:30:00,
2013-04-24 07:35:00,50.4,49.3,30.18,SSW,206,1.0,1.0,96,0.00,,,0.00,Wunderground v.1.15,2013-04-24 11:35:00,
2013-04-24 07:45:00,51.1,50.0,30.18,SSW,202,1.0,1.0,96,0.00,,,0.00,Wunderground v.1.15,2013-04-24 11:45:00,
2013-04-24 07:50:00,51.6,50.5,30.18,WSW,252,2.0,2.0,96,0.00,,,0.00,Wunderground v.1.15,2013-04-24 11:50:00,
2013-04-24 07:55:00,52.1,51.0,30.18,SSW,200,3.0,4.0,96,0.00,,,0.00,Wunderground v.1.15,2013-04-24 11:55:00,
2013-04-24 08:00:00,52.4,51.3,30.18,SSW,206,3.0,3.0,96,0.00,,,0.00,Wunderground v.1.15,2013-04-24 12:00:00,
2013-04-24 08:05:00,52.9,51.8,30.18,SW,227,3.0,4.0,96,0.00,,,0.00,Wunderground v.1.15,2013-04-24 12:05:00,
2013-04-24 08:15:00,53.7,52.6,30.18,SSW,209,4.0,5.0,96,0.00,,,0.00,Wunderground v.1.15,2013-04-24 12:15:00,
2013-04-24 08:20:00,54.1,52.7,30.18,SW,228,5.0,7.0,95,0.00,,,0.00,Wunderground v.1.15,2013-04-24 12:20:00,
2013-04-24 08:25:00,54.5,53.1,30.19,SSW,203,6.0,8.0,95,0.00,,,0.00,Wunderground v.1.15,2013-04-24 12:25:00,
2013-04-24 08:30:00,55.0,53.3,30.19,SSW,196,6.0,7.0,94,0.00,,,0.00,Wunderground v.1.15,2013-04-24 12:30:00,
2013-04-24 08:35:00,55.3,53.6,30.18,WSW,245,6.0,7.0,94,0.00,,,0.00,Wunderground v.1.15,2013-04-24 12:35:00,
2013-04-24 08:40:00,55.6,53.9,30.18,SSW,204,5.0,8.0,94,0.00,,,0.00,Wunderground v.1.15,2013-04-24 12:40:00,
2013-04-24 08:45:00,56.0,54.0,30.18,SW,215,6.0,8.0,93,0.00,,,0.00,Wunderground v.1.15,2013-04-24 12:45:00,
2013-04-24 08:50:00,56.6,54.6,30.18,SW,226,6.0,6.0,93,0.00,,,0.00,Wunderground v.1.15,2013-04-24 12:50:00,
2013-04-24 08:55:00,57.1,54.8,30.18,SSW,205,6.0,6.0,92,0.00,,,0.00,Wunderground v.1.15,2013-04-24 12:55:00,
2013-04-24 09:00:00,57.8,55.2,30.18,SSW,203,6.0,6.0,91,0.00,,,0.00,Wunderground v.1.15,2013-04-24 13:00:00,
2013-04-24 09:05:00,58.3,55.4,30.18,South,188,5.0,6.0,90,0.00,,,0.00,Wunderground v.1.15,2013-04-24 13:05:00,
2013-04-24 09:15:00,59.0,55.4,30.18,WSW,239,7.0,7.0,88,0.00,,,0.00,Wunderground v.1.15,2013-04-24 13:15:00,
2013-04-24 09:20:00,59.5,55.9,30.18,SSW,202,6.0,10.0,88,0.00,,,0.00,Wunderground v.1.15,2013-04-24 13:20:00,
2013-04-24 09:25:00,59.9,55.7,30.18,SSW,200,7.0,10.0,86,0.00,,,0.00,Wunderground v.1.15,2013-04-24 13:25:00,
2013-04-24 09:30:00,60.2,55.3,30.18,WSW,240,9.0,12.0,84,0.00,,,0.00,Wunderground v.1.15,2013-04-24 13:30:00,
2013-04-24 09:35:00,60.5,55.3,30.18,SSW,212,9.0,13.0,83,0.00,,,0.00,Wunderground v.1.15,2013-04-24 13:35:00,
2013-04-24 09:40:00,60.7,55.2,30.17,SSW,208,9.0,9.0,82,0.00,,,0.00,Wunderground v.1.15,2013-04-24 13:40:00,
2013-04-24 09:45:00,61.1,55.6,30.17,WSW,238,8.0,11.0,82,0.00,,,0.00,Wunderground v.1.15,2013-04-24 13:45:00,
2013-04-24 09:50:00,61.3,55.1,30.17,SSW,208,8.0,10.0,80,0.00,,,0.00,Wunderground v.1.15,2013-04-24 13:50:00,
2013-04-24 09:55:00,61.8,55.9,30.17,South,182,9.0,10.0,81,0.00,,,0.00,Wunderground v.1.15,2013-04-24 13:55:00,
2013-04-24 10:00:00,62.1,55.5,30.17,SW,228,9.0,9.0,79,0.00,,,0.00,Wunderground v.1.15,2013-04-24 14:00:00,
2013-04-24 10:10:00,63.3,56.0,30.17,SW,225,7.0,10.0,77,0.00,,,0.00,Wunderground v.1.15,2013-04-24 14:10:00,
2013-04-24 10:15:00,63.8,56.4,30.17,South,177,8.0,12.0,77,0.00,,,0.00,Wunderground v.1.15,2013-04-24 14:15:00,
2013-04-24 10:25:00,64.0,55.2,30.16,SW,225,9.0,9.0,73,0.00,,,0.00,Wunderground v.1.15,2013-04-24 14:25:00,
2013-04-24 10:30:00,64.8,55.6,30.16,SW,221,8.0,8.0,72,0.00,,,0.00,Wunderground v.1.15,2013-04-24 14:30:00,
2013-04-24 10:35:00,65.3,55.3,30.16,SW,232,8.0,8.0,70,0.00,,,0.00,Wunderground v.1.15,2013-04-24 14:35:00,
2013-04-24 10:45:00,65.8,56.1,30.16,South,180,7.0,9.0,71,0.00,,,0.00,Wunderground v.1.15,2013-04-24 14:45:00,
2013-04-24 10:55:00,65.7,55.6,30.16,SSE,149,7.0,10.0,70,0.00,,,0.00,Wunderground v.1.15,2013-04-24 14:55:00,
2013-04-24 11:00:00,66.1,56.0,30.15,SW,226,8.0,11.0,70,0.00,,,0.00,Wunderground v.1.15,2013-04-24 15:00:00,
2013-04-24 11:05:00,66.7,55.4,30.15,SSW,212,9.0,11.0,67,0.00,,,0.00,Wunderground v.1.15,2013-04-24 15:05:00,
2013-04-24 11:15:00,66.9,55.6,30.15,SSW,211,10.0,11.0,67,0.00,,,0.00,Wunderground v.1.15,2013-04-24 15:15:00,
2013-04-24 11:20:00,67.5,55.7,30.15,SW,224,10.0,10.0,66,0.00,,,0.00,Wunderground v.1.15,2013-04-24 15:20:00,
2013-04-24 11:30:00,68.3,56.9,30.14,SSW,204,7.0,9.0,67,0.00,,,0.00,Wunderground v.1.15,2013-04-24 15:30:00,
2013-04-24 11:35:00,68.3,57.3,30.14,SSW,192,7.0,9.0,68,0.00,,,0.00,Wunderground v.1.15,2013-04-24 15:35:00,
2013-04-24 11:40:00,68.1,55.9,30.14,SW,218,8.0,8.0,65,0.00,,,0.00,Wunderground v.1.15,2013-04-24 15:40:00,
2013-04-24 11:50:00,69.2,57.4,30.13,SSW,207,6.0,7.0,66,0.00,,,0.00,Wunderground v.1.15,2013-04-24 15:50:00,
2013-04-24 11:55:00,69.4,57.5,30.13,SW,214,5.0,7.0,66,0.00,,,0.00,Wunderground v.1.15,2013-04-24 15:55:00,
2013-04-24 12:00:00,69.2,56.1,30.13,SW,229,7.0,8.0,63,0.00,,,0.00,Wunderground v.1.15,2013-04-24 16:00:00,
2013-04-24 12:05:00,69.2,56.9,30.12,SW,220,9.0,9.0,65,0.00,,,0.00,Wunderground v.1.15,2013-04-24 16:05:00,
2013-04-24 12:15:00,69.6,56.9,30.12,SSW,203,7.0,11.0,64,0.00,,,0.00,Wunderground v.1.15,2013-04-24 16:15:00,
2013-04-24 12:20:00,69.8,56.6,30.11,SW,217,8.0,8.0,63,0.00,,,0.00,Wunderground v.1.15,2013-04-24 16:20:00,
2013-04-24 12:30:00,71.0,57.8,30.11,SSW,202,7.0,7.0,63,0.00,,,0.00,Wunderground v.1.15,2013-04-24 16:30:00,
2013-04-24 12:35:00,70.6,56.9,30.10,SW,214,6.0,11.0,62,0.00,,,0.00,Wunderground v.1.15,2013-04-24 16:35:00,
2013-04-24 12:40:00,71.0,57.8,30.11,SSW,207,7.0,7.0,63,0.00,,,0.00,Wunderground v.1.15,2013-04-24 16:40:00,
2013-04-24 12:45:00,71.3,57.6,30.10,SSW,204,7.0,7.0,62,0.00,,,0.00,Wunderground v.1.15,2013-04-24 16:45:00,
2013-04-24 12:50:00,72.2,58.0,30.10,SSW,211,6.0,10.0,61,0.00,,,0.00,Wunderground v.1.15,2013-04-24 16:50:00,
2013-04-24 12:55:00,71.9,58.2,30.10,South,188,8.0,10.0,62,0.00,,,0.00,Wunderground v.1.15,2013-04-24 16:55:00,
2013-04-24 13:00:00,71.5,56.4,30.10,SSW,206,9.0,9.0,59,0.00,,,0.00,Wunderground v.1.15,2013-04-24 17:00:00,
2013-04-24 13:05:00,72.4,57.7,30.09,SSW,194,8.0,9.0,60,0.00,,,0.00,Wunderground v.1.15,2013-04-24 17:05:00,
2013-04-24 13:15:00,72.6,57.4,30.09,SSW,196,7.0,11.0,59,0.00,,,0.00,Wunderground v.1.15,2013-04-24 17:15:00,
2013-04-24 13:20:00,72.9,57.3,30.09,SW,216,9.0,10.0,58,0.00,,,0.00,Wunderground v.1.15,2013-04-24 17:20:00,
2013-04-24 13:25:00,73.3,57.1,30.09,South,185,8.0,10.0,57,0.00,,,0.00,Wunderground v.1.15,2013-04-24 17:25:00,
2013-04-24 13:35:00,74.0,56.8,30.09,SW,223,9.0,9.0,55,0.00,,,0.00,Wunderground v.1.15,2013-04-24 17:35:00,
2013-04-24 13:40:00,73.8,57.1,30.10,South,185,8.0,8.0,56,0.00,,,0.00,Wunderground v.1.15,2013-04-24 17:40:00,
2013-04-24 13:45:00,73.8,57.1,30.09,SSW,203,7.0,11.0,56,0.00,,,0.00,Wunderground v.1.15,2013-04-24 17:45:00,
2013-04-24 13:50:00,73.6,56.9,30.10,SW,219,8.0,12.0,56,0.00,,,0.00,Wunderground v.1.15,2013-04-24 17:50:00,
2013-04-24 13:55:00,73.7,55.5,30.09,SW,234,9.0,12.0,53,0.00,,,0.00,Wunderground v.1.15,2013-04-24 17:55:00,
2013-04-24 14:00:00,74.3,56.6,30.09,South,189,10.0,10.0,54,0.00,,,0.00,Wunderground v.1.15,2013-04-24 18:00:00,
2013-04-24 14:05:00,74.7,56.4,30.09,SSW,204,9.0,10.0,53,0.00,,,0.00,Wunderground v.1.15,2013-04-24 18:05:00,
2013-04-24 14:15:00,74.1,56.4,30.08,SW,227,10.0,10.0,54,0.00,,,0.00,Wunderground v.1.15,2013-04-24 18:15:00,
2013-04-24 14:20:00,75.0,56.2,30.08,SW,230,9.0,14.0,52,0.00,,,0.00,Wunderground v.1.15,2013-04-24 18:20:00,
2013-04-24 14:25:00,75.0,56.7,30.08,SSW,194,10.0,14.0,53,0.00,,,0.00,Wunderground v.1.15,2013-04-24 18:25:00,
2013-04-24 14:35:00,75.3,55.9,30.08,SW,224,10.0,13.0,51,0.00,,,0.00,Wunderground v.1.15,2013-04-24 18:35:00,
2013-04-24 14:40:00,75.4,57.1,30.08,South,186,10.0,18.0,53,0.00,,,0.00,Wunderground v.1.15,2013-04-24 18:40:00,
2013-04-24 14:45:00,75.6,56.2,30.08,West,265,11.0,18.0,51,0.00,,,0.00,Wunderground v.1.15,2013-04-24 18:45:00,
2013-04-24 14:50:00,75.2,56.9,30.08,South,186,10.0,12.0,53,0.00,,,0.00,Wunderground v.1.15,2013-04-24 18:50:00,
2013-04-24 14:55:00,75.8,55.8,30.07,South,186,9.0,13.0,50,0.00,,,0.00,Wunderground v.1.15,2013-04-24 18:55:00,
2013-04-24 15:00:00,76.1,57.2,30.07,SW,218,9.0,9.0,52,0.00,,,0.00,Wunderground v.1.15,2013-04-24 19:00:00,
2013-04-24 15:05:00,76.3,56.3,30.07,SW,217,10.0,10.0,50,0.00,,,0.00,Wunderground v.1.15,2013-04-24 19:05:00,
2013-04-24 15:15:00,76.8,56.8,30.07,SSW,213,10.0,17.0,50,0.00,,,0.00,Wunderground v.1.15,2013-04-24 19:15:00,
2013-04-24 15:20:00,76.3,55.7,30.07,SW,225,10.0,10.0,49,0.00,,,0.00,Wunderground v.1.15,2013-04-24 19:20:00,
2013-04-24 15:25:00,76.4,55.8,30.06,WSW,245,11.0,12.0,49,0.00,,,0.00,Wunderground v.1.15,2013-04-24 19:25:00,
2013-04-24 15:30:00,76.5,56.5,30.05,SW,217,10.0,10.0,50,0.00,,,0.00,Wunderground v.1.15,2013-04-24 19:30:00,
2013-04-24 15:40:00,77.3,56.1,30.05,WSW,249,10.0,11.0,48,0.00,,,0.00,Wunderground v.1.15,2013-04-24 19:40:00,
2013-04-24 15:45:00,77.2,56.6,30.05,SSW,201,10.0,12.0,49,0.00,,,0.00,Wunderground v.1.15,2013-04-24 19:45:00,
2013-04-24 15:50:00,77.1,55.9,30.05,SW,224,10.0,10.0,48,0.00,,,0.00,Wunderground v.1.15,2013-04-24 19:50:00,
2013-04-24 15:55:00,76.7,55.5,30.05,SW,232,10.0,10.0,48,0.00,,,0.00,Wunderground v.1.15,2013-04-24 19:55:00,
2013-04-24 16:00:00,76.7,56.7,30.04,SW,217,10.0,10.0,50,0.00,,,0.00,Wunderground v.1.15,2013-04-24 20:00:00,
2013-04-24 16:05:00,76.6,56.6,30.04,South,174,10.0,10.0,50,0.00,,,0.00,Wunderground v.1.15,2013-04-24 20:05:00,
2013-04-24 16:15:00,77.1,56.5,30.04,SSW,209,8.0,10.0,49,0.00,,,0.00,Wunderground v.1.15,2013-04-24 20:15:00,
2013-04-24 16:20:00,76.9,55.7,30.04,SSW,192,9.0,9.0,48,0.00,,,0.00,Wunderground v.1.15,2013-04-24 20:20:00,
2013-04-24 16:25:00,76.9,55.1,30.05,SW,223,11.0,11.0,47,0.00,,,0.00,Wunderground v.1.15,2013-04-24 20:25:00,
2013-04-24 16:30:00,77.4,55.6,30.04,WSW,240,11.0,11.0,47,0.00,,,0.00,Wunderground v.1.15,2013-04-24 20:30:00,
2013-04-24 16:40:00,77.5,56.3,30.04,South,188,10.0,10.0,48,0.00,,,0.00,Wunderground v.1.15,2013-04-24 20:40:00,
2013-04-24 16:45:00,77.0,55.2,30.03,SW,215,10.0,10.0,47,0.00,,,0.00,Wunderground v.1.15,2013-04-24 20:45:00,
2013-04-24 16:50:00,76.8,55.6,30.03,WSW,246,9.0,10.0,48,0.00,,,0.00,Wunderground v.1.15,2013-04-24 20:50:00,
2013-04-24 16:55:00,76.8,56.2,30.03,SSW,212,8.0,10.0,49,0.00,,,0.00,Wunderground v.1.15,2013-04-24 20:55:00,
2013-04-24 17:00:00,76.8,56.2,30.03,South,173,8.0,8.0,49,0.00,,,0.00,Wunderground v.1.15,2013-04-24 21:00:00,
2013-04-24 17:05:00,76.4,55.8,30.03,WSW,247,8.0,8.0,49,0.00,,,0.00,Wunderground v.1.15,2013-04-24 21:05:00,
2013-04-24 17:15:00,75.8,55.8,30.03,SW,219,7.0,8.0,50,0.00,,,0.00,Wunderground v.1.15,2013-04-24 21:15:00,
2013-04-24 17:20:00,75.7,55.7,30.03,SW,216,6.0,8.0,50,0.00,,,0.00,Wunderground v.1.15,2013-04-24 21:20:00,
2013-04-24 17:30:00,75.6,55.6,30.02,SSW,213,8.0,10.0,50,0.00,,,0.00,Wunderground v.1.15,2013-04-24 21:30:00,
2013-04-24 17:35:00,75.7,55.7,30.02,SW,215,9.0,10.0,50,0.00,,,0.00,Wunderground v.1.15,2013-04-24 21:35:00,
2013-04-24 17:45:00,75.6,56.2,30.01,SW,223,10.0,14.0,51,0.00,,,0.00,Wunderground v.1.15,2013-04-24 21:45:00,
2013-04-24 17:50:00,75.4,56.0,30.01,SSW,201,8.0,9.0,51,0.00,,,0.00,Wunderground v.1.15,2013-04-24 21:50:00,
2013-04-24 17:55:00,75.1,56.3,30.01,South,189,8.0,9.0,52,0.00,,,0.00,Wunderground v.1.15,2013-04-24 21:55:00,
2013-04-24 18:00:00,74.7,56.4,30.01,South,187,8.0,8.0,53,0.00,,,0.00,Wunderground v.1.15,2013-04-24 22:00:00,
2013-04-24 18:05:00,74.4,56.2,30.01,SSW,192,7.0,8.0,53,0.00,,,0.00,Wunderground v.1.15,2013-04-24 22:05:00,
2013-04-24 18:15:00,74.0,56.8,30.00,SSE,161,7.0,7.0,55,0.00,,,0.00,Wunderground v.1.15,2013-04-24 22:15:00,
2013-04-24 18:25:00,73.8,56.6,30.00,SSW,202,6.0,8.0,55,0.00,,,0.00,Wunderground v.1.15,2013-04-24 22:25:00,
2013-04-24 18:30:00,73.9,57.2,30.00,SSW,198,6.0,11.0,56,0.00,,,0.00,Wunderground v.1.15,2013-04-24 22:30:00,
2013-04-24 18:40:00,73.9,56.7,30.00,SSW,209,7.0,7.0,55,0.00,,,0.00,Wunderground v.1.15,2013-04-24 22:40:00,
2013-04-24 18:45:00,73.9,56.7,30.00,SSW,193,8.0,8.0,55,0.00,,,0.00,Wunderground v.1.15,2013-04-24 22:45:00,
2013-04-24 18:50:00,73.8,56.6,30.00,SSW,205,7.0,7.0,55,0.00,,,0.00,Wunderground v.1.15,2013-04-24 22:50:00,
2013-04-24 18:55:00,73.7,57.0,30.00,South,185,6.0,7.0,56,0.00,,,0.00,Wunderground v.1.15,2013-04-24 22:55:00,
2013-04-24 19:00:00,73.5,56.8,30.01,SSW,202,6.0,6.0,56,0.00,,,0.00,Wunderground v.1.15,2013-04-24 23:00:00,
2013-04-24 19:05:00,73.5,56.8,30.01,South,181,6.0,6.0,56,0.00,,,0.00,Wunderground v.1.15,2013-04-24 23:05:00,
2013-04-24 19:15:00,73.1,57.0,30.01,SSW,211,5.0,5.0,57,0.00,,,0.00,Wunderground v.1.15,2013-04-24 23:15:00,
2013-04-24 19:20:00,72.8,57.2,30.01,SSW,205,4.0,7.0,58,0.00,,,0.00,Wunderground v.1.15,2013-04-24 23:20:00,
2013-04-24 19:30:00,72.2,57.1,30.01,SSW,198,5.0,5.0,59,0.00,,,0.00,Wunderground v.1.15,2013-04-24 23:30:00,
2013-04-24 19:35:00,72.0,56.9,30.01,SSW,209,5.0,5.0,59,0.00,,,0.00,Wunderground v.1.15,2013-04-24 23:35:00,
2013-04-24 19:40:00,71.7,57.1,30.01,SSW,197,5.0,5.0,60,0.00,,,0.00,Wunderground v.1.15,2013-04-24 23:40:00,
2013-04-24 19:45:00,71.3,56.7,30.01,SSW,200,3.0,5.0,60,0.00,,,0.00,Wunderground v.1.15,2013-04-24 23:45:00,
2013-04-24 19:50:00,70.9,56.8,30.01,SSW,200,1.0,2.0,61,0.00,,,0.00,Wunderground v.1.15,2013-04-24 23:50:00,
2013-04-24 19:55:00,70.5,56.9,30.01,SSW,198,2.0,2.0,62,0.00,,,0.00,Wunderground v.1.15,2013-04-24 23:55:00,
2013-04-24 20:00:00,70.2,56.6,30.01,SSW,194,2.0,3.0,62,0.00,,,0.00,Wunderground v.1.15,2013-04-25 00:00:00,
2013-04-24 20:05:00,70.1,56.9,30.01,SSW,192,3.0,3.0,63,0.00,,,0.00,Wunderground v.1.15,2013-04-25 00:05:00,
2013-04-24 20:15:00,69.7,56.5,30.02,SSW,194,3.0,5.0,63,0.00,,,0.00,Wunderground v.1.15,2013-04-25 00:15:00,
2013-04-24 20:20:00,69.7,56.5,30.02,SSW,204,3.0,4.0,63,0.00,,,0.00,Wunderground v.1.15,2013-04-25 00:20:00,
2013-04-24 20:25:00,69.5,56.8,30.02,SSW,203,4.0,4.0,64,0.00,,,0.00,Wunderground v.1.15,2013-04-25 00:25:00,
2013-04-24 20:30:00,69.4,56.7,30.03,SSW,205,2.0,2.0,64,0.00,,,0.00,Wunderground v.1.15,2013-04-25 00:30:00,
2013-04-24 20:35:00,69.4,56.7,30.03,SSW,198,3.0,3.0,64,0.00,,,0.00,Wunderground v.1.15,2013-04-25 00:35:00,
2013-04-24 20:40:00,69.2,56.5,30.03,SSW,198,3.0,3.0,64,0.00,,,0.00,Wunderground v.1.15,2013-04-25 00:40:00,
2013-04-24 20:45:00,69.0,56.7,30.03,SSW,199,1.0,3.0,65,0.00,,,0.00,Wunderground v.1.15,2013-04-25 00:45:00,
2013-04-24 20:55:00,68.9,56.6,30.03,SSW,200,3.0,4.0,65,0.00,,,0.00,Wunderground v.1.15,2013-04-25 00:55:00,
2013-04-24 21:00:00,69.0,56.7,30.03,SW,215,3.0,4.0,65,0.00,,,0.00,Wunderground v.1.15,2013-04-25 01:00:00,
2013-04-24 21:05:00,69.1,56.8,30.03,SSW,207,3.0,5.0,65,0.00,,,0.00,Wunderground v.1.15,2013-04-25 01:05:00,
2013-04-24 21:15:00,69.2,56.5,30.04,SSW,204,4.0,5.0,64,0.00,,,0.00,Wunderground v.1.15,2013-04-25 01:15:00,
2013-04-24 21:20:00,69.4,56.7,30.04,SW,226,5.0,5.0,64,0.00,,,0.00,Wunderground v.1.15,2013-04-25 01:20:00,
2013-04-24 21:25:00,69.4,56.7,30.04,SSW,212,5.0,5.0,64,0.00,,,0.00,Wunderground v.1.15,2013-04-25 01:25:00,
2013-04-24 21:30:00,69.4,56.7,30.04,SW,219,4.0,5.0,64,0.00,,,0.00,Wunderground v.1.15,2013-04-25 01:30:00,
2013-04-24 21:35:00,69.4,56.7,30.04,SW,215,4.0,5.0,64,0.00,,,0.00,Wunderground v.1.15,2013-04-25 01:35:00,
2013-04-24 21:45:00,69.4,56.7,30.04,SSW,205,6.0,6.0,64,0.00,,,0.00,Wunderground v.1.15,2013-04-25 01:45:00,
2013-04-24 21:55:00,69.3,56.6,30.05,SSW,213,4.0,5.0,64,0.00,,,0.00,Wunderground v.1.15,2013-04-25 01:55:00,
2013-04-24 22:00:00,69.2,56.5,30.05,SSW,211,4.0,4.0,64,0.00,,,0.00,Wunderground v.1.15,2013-04-25 02:00:00,
2013-04-24 22:05:00,69.0,56.7,30.05,SW,223,3.0,4.0,65,0.00,,,0.00,Wunderground v.1.15,2013-04-25 02:05:00,
2013-04-24 22:15:00,68.8,56.6,30.05,SW,214,3.0,3.0,65,0.00,,,0.00,Wunderground v.1.15,2013-04-25 02:15:00,
2013-04-24 22:20:00,68.5,56.3,30.05,SW,214,2.0,2.0,65,0.00,,,0.00,Wunderground v.1.15,2013-04-25 02:20:00,
2013-04-24 22:30:00,68.0,56.6,30.05,SW,217,1.0,1.0,67,0.00,,,0.00,Wunderground v.1.15,2013-04-25 02:30:00,
2013-04-24 22:35:00,67.7,56.3,30.05,SW,217,0.0,1.0,67,0.00,,,0.00,Wunderground v.1.15,2013-04-25 02:35:00,
2013-04-24 22:40:00,67.4,56.5,30.05,SW,217,0.0,0.0,68,0.00,,,0.00,Wunderground v.1.15,2013-04-25 02:40:00,
2013-04-24 22:45:00,67.1,56.2,30.05,SW,217,0.0,0.0,68,0.00,,,0.00,Wunderground v.1.15,2013-04-25 02:45:00,
2013-04-24 22:50:00,66.8,56.3,30.06,SW,217,0.0,0.0,69,0.00,,,0.00,Wunderground v.1.15,2013-04-25 02:50:00,
2013-04-24 23:00:00,66.2,56.1,30.05,SW,217,0.0,0.0,70,0.00,,,0.00,Wunderground v.1.15,2013-04-25 03:00:00,
2013-04-24 23:05:00,65.9,56.2,30.05,SW,217,0.0,0.0,71,0.00,,,0.00,Wunderground v.1.15,2013-04-25 03:05:00,
2013-04-24 23:15:00,65.6,56.3,30.04,SW,216,0.0,1.0,72,0.00,,,0.00,Wunderground v.1.15,2013-04-25 03:15:00,
2013-04-24 23:20:00,65.4,56.1,30.04,SW,216,0.0,0.0,72,0.00,,,0.00,Wunderground v.1.15,2013-04-25 03:20:00,
2013-04-24 23:30:00,65.0,56.5,30.03,South,188,1.0,1.0,74,0.00,,,0.00,Wunderground v.1.15,2013-04-25 03:30:00,
2013-04-24 23:35:00,65.0,56.9,30.04,South,186,1.0,1.0,75,0.00,,,0.00,Wunderground v.1.15,2013-04-25 03:35:00,
2013-04-24 23:40:00,64.9,57.2,30.03,South,180,1.0,1.0,76,0.00,,,0.00,Wunderground v.1.15,2013-04-25 03:40:00,
2013-04-24 23:45:00,64.8,57.4,30.03,South,181,1.0,3.0,77,0.00,,,0.00,Wunderground v.1.15,2013-04-25 03:45:00,
2013-04-24 23:55:00,64.5,57.8,30.04,South,186,1.0,4.0,79,0.00,,,0.00,Wunderground v.1.15,2013-04-25 03:55:00,